{"data":{"norad_id":52988,"epoch":"2026-05-25T03:34:19.445952Z","epoch_age_seconds":65759,"freshness":"FRESH","line1":"1 52988U 22076C   26145.14883618  .00000647  00000+0  58717-4 0  9994","line2":"2 52988  53.2140 110.8792 0000501  52.9449 307.1589 15.08848417214383","mean_motion":15.08848417,"eccentricity":5.01e-5,"inclination_deg":53.214,"raan_deg":110.8792,"arg_perigee_deg":52.9449,"mean_anomaly_deg":307.1589,"bstar":5.8717e-5,"rev_number":21438,"period_min":95.437022286381,"perigee_km":539.37107716342,"apogee_km":540.06424620052,"semimajor_km":6917.854661682,"source":"CELESTRAK","updated_at":"2026-05-25T13:38:17.273427Z"}}